NOZ1413 LFMT-ENGM

Flight info

Callsign NOZ1413
Flight time N/A
Altitude 34000
Route NG DCT MOLEN DCT MTL DCT ETREK/N0444F380 DCT LUXAN DCT LTP DCT SOPLO DCT OMASI DCT KINNI DCT GILIR DCT PENDU DCT IXILU DCT EPL DCT ROUSY DCT ARCKY/N0442F370 DCT IBESA DCT KUGAL DCT PIPEX/N0454F390 DCT RIPAM
Aircraft B38M/M-SDE1FGHILORVWXY/HB1

Departure

Time 2026-04-16 15:46
Airport Montpellier-Méditerranée Airport (LFMT)

Arrival

Time N/A
Airport Oslo-Gardermoen International Airport (ENGM)
Time Latitude Longitude Altitude Speed Heading
2026-04-16 15:13 43.58018 3.95853 17 ft 0 kts 214°
2026-04-16 15:15 43.58019 3.95854 17 ft 0 kts 212°
2026-04-16 15:35 43.58032 3.95865 19 ft 4 kts 204°
2026-04-16 15:35 43.58057 3.95873 19 ft 4 kts 172°
2026-04-16 15:35 43.58076 3.95859 22 ft 2 kts 122°
2026-04-16 15:35 43.58076 3.95858 22 ft 0 kts 122°
2026-04-16 15:40 43.58075 3.95861 17 ft 1 kts 122°
2026-04-16 15:40 43.58065 3.95886 20 ft 5 kts 112°
2026-04-16 15:40 43.58043 3.95967 18 ft 11 kts 114°
2026-04-16 15:41 43.57999 3.96069 18 ft 13 kts 122°
2026-04-16 15:41 43.57976 3.96188 18 ft 14 kts 62°
2026-04-16 15:41 43.58041 3.96278 17 ft 11 kts 72°
2026-04-16 15:41 43.58006 3.96374 17 ft 12 kts 122°
2026-04-16 15:42 43.57954 3.96480 17 ft 14 kts 124°
2026-04-16 15:42 43.57892 3.96599 14 ft 18 kts 126°
2026-04-16 15:42 43.57817 3.96746 14 ft 19 kts 124°
2026-04-16 15:42 43.57738 3.96904 14 ft 21 kts 125°
2026-04-16 15:43 43.57656 3.97066 20 ft 20 kts 125°
2026-04-16 15:43 43.57574 3.97227 19 ft 21 kts 125°
2026-04-16 15:43 43.57493 3.97391 21 ft 20 kts 124°
2026-04-16 15:43 43.57407 3.97564 19 ft 23 kts 124°
2026-04-16 15:44 43.57312 3.97751 16 ft 25 kts 125°
2026-04-16 15:44 43.57211 3.97949 19 ft 24 kts 125°
2026-04-16 15:44 43.57194 3.98121 18 ft 19 kts 47°
2026-04-16 15:44 43.57310 3.98155 18 ft 18 kts 327°
2026-04-16 15:45 43.57410 3.97955 16 ft 46 kts 304°
2026-04-16 15:45 43.57726 3.97324 19 ft 112 kts 305°
2026-04-16 15:45 43.58284 3.96227 30 ft 163 kts 303°
2026-04-16 15:45 43.58969 3.94909 522 ft 175 kts 302°
2026-04-16 15:46 43.59758 3.93558 1092 ft 185 kts 320°
2026-04-16 15:46 43.60960 3.92966 1679 ft 189 kts
2026-04-16 15:46 43.62191 3.93754 1998 ft 213 kts 45°
2026-04-16 15:46 43.62956 3.95589 2408 ft 234 kts 70°
2026-04-16 15:47 43.63621 3.97685 3063 ft 245 kts 59°
2026-04-16 15:47 43.64501 3.99795 3638 ft 259 kts 59°
2026-04-16 15:47 43.65396 4.01954 4525 ft 260 kts 58°
2026-04-16 15:47 43.66372 4.04085 5318 ft 264 kts 51°
2026-04-16 15:48 43.67494 4.06121 6109 ft 268 kts 51°
2026-04-16 15:48 43.68622 4.08197 6874 ft 272 kts 51°
2026-04-16 15:48 43.69757 4.10311 7608 ft 277 kts 51°
2026-04-16 15:48 43.70906 4.12468 8346 ft 280 kts 52°
2026-04-16 15:49 43.72068 4.14659 9099 ft 284 kts 52°
2026-04-16 15:49 43.73241 4.16878 9836 ft 288 kts 52°
2026-04-16 15:49 43.74433 4.19139 10440 ft 296 kts 52°
2026-04-16 15:49 43.75689 4.21524 10724 ft 316 kts 53°
2026-04-16 15:50 43.77018 4.24047 11087 ft 332 kts 52°
2026-04-16 15:50 43.78392 4.26662 11690 ft 337 kts 52°
2026-04-16 15:50 43.79772 4.29292 12444 ft 340 kts 52°
2026-04-16 15:50 43.81171 4.31954 13170 ft 343 kts 53°
2026-04-16 15:51 43.82580 4.34645 13919 ft 347 kts 51°
2026-04-16 15:51 43.84009 4.37371 14586 ft 351 kts 53°
2026-04-16 15:51 43.85597 4.39923 15230 ft 352 kts 37°
2026-04-16 15:51 43.86987 4.41165 15656 ft 351 kts 22°
2026-04-16 15:52 43.89247 4.42430 16362 ft 353 kts 20°
2026-04-16 15:52 43.91550 4.43713 16926 ft 359 kts 19°
2026-04-16 15:52 43.93880 4.44990 17627 ft 362 kts 18°
2026-04-16 15:52 43.96244 4.46273 18183 ft 368 kts 19°
2026-04-16 15:53 43.98648 4.47569 18737 ft 372 kts 19°
2026-04-16 15:53 44.01066 4.48871 19320 ft 374 kts 19°
2026-04-16 15:53 44.03501 4.50184 19879 ft 377 kts 19°
2026-04-16 15:53 44.05953 4.51496 20458 ft 379 kts 18°
2026-04-16 15:54 44.08427 4.52805 20996 ft 382 kts 18°
2026-04-16 15:54 44.10916 4.54125 21549 ft 384 kts 18°
2026-04-16 15:54 44.13422 4.55456 22079 ft 387 kts 19°
2026-04-16 15:54 44.15949 4.56800 22588 ft 391 kts 18°
2026-04-16 15:55 44.18498 4.58156 23133 ft 392 kts 18°
2026-04-16 15:55 44.21049 4.59516 23719 ft 394 kts 18°
2026-04-16 15:55 44.23616 4.60883 24144 ft 396 kts 18°
2026-04-16 15:55 44.26195 4.62260 24570 ft 398 kts 17°
2026-04-16 15:56 44.28790 4.63646 25009 ft 400 kts 18°
2026-04-16 15:56 44.31393 4.65037 25428 ft 402 kts 18°
2026-04-16 15:56 44.34018 4.66443 25825 ft 404 kts 18°
2026-04-16 15:56 44.36646 4.67850 26261 ft 406 kts 18°
2026-04-16 15:57 44.39291 4.69268 26618 ft 409 kts 18°
2026-04-16 15:57 44.41948 4.70694 27070 ft 409 kts 18°
2026-04-16 15:57 44.44614 4.72126 27420 ft 412 kts 18°
2026-04-16 15:57 44.47297 4.73569 27825 ft 413 kts 18°
2026-04-16 15:58 44.49987 4.75017 28190 ft 416 kts 18°
2026-04-16 15:58 44.52699 4.76475 28563 ft 418 kts 17°
2026-04-16 15:58 44.55509 4.77416 28837 ft 416 kts
2026-04-16 15:58 44.58389 4.77174 29199 ft 414 kts 350°
2026-04-16 15:59 44.64131 4.76035 29859 ft 419 kts 350°
2026-04-16 15:59 44.67027 4.75422 30182 ft 422 kts 350°
2026-04-16 15:59 44.69931 4.74789 30485 ft 423 kts 349°
2026-04-16 16:00 44.72843 4.74146 30783 ft 425 kts 349°
2026-04-16 16:00 44.75771 4.73497 31041 ft 427 kts 349°
2026-04-16 16:00 44.78709 4.72844 31339 ft 428 kts 349°
2026-04-16 16:00 44.81657 4.72188 31611 ft 430 kts 349°
2026-04-16 16:01 44.84619 4.71528 31869 ft 432 kts 349°
2026-04-16 16:01 44.87593 4.70865 32139 ft 433 kts 349°
2026-04-16 16:01 44.90572 4.70200 32512 ft 433 kts 349°
2026-04-16 16:01 44.93540 4.69537 32884 ft 432 kts 349°
2026-04-16 16:02 44.96502 4.68874 33259 ft 431 kts 349°
2026-04-16 16:02 44.99457 4.68212 33658 ft 429 kts 349°
2026-04-16 16:02 45.02402 4.67552 34036 ft 428 kts 349°
2026-04-16 16:02 45.05344 4.66892 34377 ft 427 kts 349°
2026-04-16 16:03 45.08274 4.66234 34669 ft 427 kts 349°
2026-04-16 16:03 45.11167 4.65595 34953 ft 426 kts 351°
2026-04-16 16:03 45.14134 4.65589 35220 ft 429 kts
2026-04-16 16:03 45.17006 4.66785 35487 ft 434 kts 22°
2026-04-16 16:04 45.19604 4.69114 35689 ft 441 kts 38°
2026-04-16 16:04 45.21667 4.72289 35881 ft 448 kts 52°
2026-04-16 16:04 45.23303 4.76143 36091 ft 451 kts 56°
2026-04-16 16:04 45.24831 4.79970 36274 ft 452 kts 57°
2026-04-16 16:05 45.26355 4.83881 36492 ft 453 kts 58°
2026-04-16 16:05 45.27882 4.87861 36730 ft 452 kts 58°
2026-04-16 16:05 45.29373 4.91786 36922 ft 453 kts 58°
2026-04-16 16:05 45.30868 4.95737 37081 ft 454 kts 58°
2026-04-16 16:06 45.32362 4.99693 37203 ft 455 kts 58°
2026-04-16 16:06 45.33835 5.03603 37197 ft 454 kts 58°
2026-04-16 16:06 45.36795 5.11473 37186 ft 450 kts 58°
2026-04-16 16:07 45.39747 5.19348 37183 ft 451 kts 58°
2026-04-16 16:07 45.42713 5.27284 37180 ft 451 kts 58°
2026-04-16 16:08 45.45633 5.35119 37195 ft 451 kts 58°
2026-04-16 16:08 45.48678 5.42931 37156 ft 448 kts 48°
2026-04-16 16:09 45.53047 5.49054 37151 ft 441 kts 39°
2026-04-16 16:09 45.57568 5.54934 37198 ft 440 kts 38°
2026-04-16 16:10 45.62122 5.60775 37172 ft 440 kts 38°
2026-04-16 16:10 45.66680 5.66617 37169 ft 440 kts 38°
2026-04-16 16:11 45.71233 5.72463 37189 ft 440 kts 38°
2026-04-16 16:11 45.75790 5.78311 37173 ft 440 kts 38°
2026-04-16 16:12 45.80346 5.84169 37181 ft 440 kts 38°
2026-04-16 16:12 45.84901 5.90039 37176 ft 441 kts 38°
2026-04-16 16:13 45.89451 5.95915 37182 ft 439 kts 38°
2026-04-16 16:13 45.93978 6.01775 37189 ft 438 kts 38°
2026-04-16 16:14 45.97741 6.06656 37190 ft 438 kts 38°